Location: Larrial
(48.2758°N, 4.5331°W)
Time: 09:25:28
(UTC+00:00)

Ariane Rocket - Pass Details

Date: 09 April 2020
Orbit: 761 x 769 km, 98.7° (Epoch: 24 May)

Event Time Altitude Azimuth Distance (km) Brightness Sun altitude
Rises 20:06:06 0° 180° (S) 3,218 6.0 -11.1°
Reaches altitude 10° 20:08:28 10° 186° (S) 2,295 5.3 -11.4°
Maximum altitude 20:13:21 48° 260° (W) 998 4.0 -12.1°
Drops below altitude 10° 20:18:15 10° 335° (NNW) 2,307 6.3 -12.9°
Sets 20:20:39 0° 341° (NNW) 3,237 7.0 -13.2°
